Weather History for Juliana Airport, St. Martin

Change the Weather History Date:

Friday, December 7, 2012

  Actual Average Record
Temperature  
Mean Temperature 80 °F -  
Max Temperature 84 °F 82 °F 87 °F (1999)
Min Temperature 77 °F 73 °F 71 °F (2013)
Cooling Degree Days 16    
Growing Degree Days 30 (Base 50)    
Moisture  
Dew Point 67 °F    
Average Humidity 62    
Maximum Humidity 74    
Minimum Humidity 43    
Precipitation  
Precipitation 0.01 in 0.11 in - ()
Sea Level Pressure  
Sea Level Pressure 29.93 in    
Wind  
Wind Speed 12 mph ()    
Max Wind Speed 17 mph    
Max Gust Speed -    
Visibility 6.3 miles    
Events Rain    
Averages and records for this station are not official NWS values.
T = Trace of Precipitation, MM = Missing Value Source: Averaged Metar Reports

Daily Weather History Graph

Daily Weather History Graph

Search for Another Location

Airport:

Trip Planner

Search our weather history database for the weather conditions in past years. The results will help you decide how hot, cold, wet, or windy it might be!

Date:

Astronomy

Dec. 07, 2012 Rise Set
Actual Time 6:31 AM AST 5:36 PM AST
Civil Twilight 6:07 AM AST 6:00 PM AST
Nautical Twilight 5:40 AM AST 6:27 PM AST
Astronomical Twilight 5:14 AM AST 6:54 PM AST
Moon 12:33 AM AST (12/7) 12:49 PM AST (12/7)
Length of Visible Light 11h 52m
Length of Day
11h 05m
Last Quarter, 39% of the Moon is Illuminated
Dec 7
Last Quarter
Dec 13
New
Dec 20
First Quarter
Dec 28
Full
Jan 4
Last Quarter

Hourly Weather History & Observations

Time (AST) Temp. Heat Index Dew Point Humidity Pressure Visibility Wind Dir Wind Speed Gust Speed Precip Events Conditions
12:00 AM 78.8 °F - 66.2 °F 65% 29.92 in 6.2 mi ENE 13.8 mph - N/A   Mostly Cloudy
1:00 AM 78.8 °F - 66.2 °F 65% 29.92 in 6.2 mi ENE 17.3 mph - N/A   Scattered Clouds
2:00 AM 79 °F - 66 °F 56% 29.92 in 31 mi East 15.0 mph - -   Scattered Clouds
2:00 AM 78.8 °F - 66.2 °F 65% 29.89 in 6.2 mi ENE 12.7 mph - N/A   Partly Cloudy
3:00 AM 78.8 °F - 66.2 °F 65% 29.89 in 6.2 mi East 12.7 mph - N/A   Partly Cloudy
4:00 AM 78.8 °F - 66.2 °F 65% 29.89 in 6.2 mi ENE 15.0 mph - N/A   Scattered Clouds
5:00 AM 78 °F - 65 °F 56% 29.90 in 31 mi East 13.8 mph - -   Partly Cloudy
5:00 AM 78.8 °F - 64.4 °F 61% 29.89 in 6.2 mi East 13.8 mph - N/A   Scattered Clouds
6:00 AM 78.8 °F - 64.4 °F 61% 29.92 in 6.2 mi East 12.7 mph - N/A   Partly Cloudy
7:00 AM 78.8 °F - 64.4 °F 61% 29.92 in 6.2 mi East 9.2 mph - N/A   Partly Cloudy
8:00 AM 80 °F - 63 °F 47% 29.96 in 44 mi East 10.4 mph - -   Scattered Clouds
8:00 AM 80.6 °F 81.8 °F 62.6 °F 54% 29.95 in 6.2 mi East 10.4 mph - N/A   Partly Cloudy
9:00 AM 82.4 °F 83.4 °F 62.6 °F 51% 29.95 in 6.2 mi ENE 15.0 mph - N/A   Partly Cloudy
10:00 AM 82.4 °F 83.9 °F 64.4 °F 54% 29.95 in 6.2 mi East 11.5 mph - N/A   Partly Cloudy
11:00 AM 84 °F - 65 °F 43% 29.97 in 44 mi ENE 12.7 mph - -   Scattered Clouds
11:00 AM 82.4 °F 83.9 °F 64.4 °F 54% 29.95 in 6.2 mi ENE 12.7 mph - N/A   Partly Cloudy
12:00 PM 82.4 °F 84.6 °F 66.2 °F 58% 29.95 in 6.2 mi ESE 11.5 mph - N/A   Scattered Clouds
1:00 PM 84.2 °F 86.6 °F 66.2 °F 55% 29.92 in 6.2 mi East 9.2 mph - N/A   Scattered Clouds
2:00 PM 83 °F - 69 °F 55% 29.90 in 44 mi ESE 9.2 mph - -   Scattered Clouds
2:00 PM 84.2 °F 88.4 °F 69.8 °F 62% 29.89 in 6.2 mi ESE 9.2 mph - N/A   Partly Cloudy
3:00 PM 82.4 °F 86.3 °F 69.8 °F 66% 29.89 in 6.2 mi East 10.4 mph - N/A   Scattered Clouds
4:00 PM 80.6 °F 83.9 °F 69.8 °F 70% 29.89 in 6.2 mi East 12.7 mph - N/A   Scattered Clouds
5:00 PM 80 °F - 69 °F 61% 29.91 in 31 mi East 16.1 mph - -   Partly Cloudy
5:00 PM 80.6 °F 83.9 °F 69.8 °F 70% 29.89 in 6.2 mi East 16.1 mph - N/A   Scattered Clouds
6:00 PM 80.6 °F 83.2 °F 68.0 °F 65% 29.92 in 6.2 mi East 6.9 mph - N/A   Scattered Clouds
7:00 PM 80.6 °F 83.2 °F 68.0 °F 65% 29.92 in 6.2 mi East 11.5 mph - N/A   Partly Cloudy
8:00 PM 80 °F - 69 °F 63% 29.97 in 25 mi East 15.0 mph - -   Partly Cloudy
8:00 PM 80.6 °F 83.9 °F 69.8 °F 70% 29.95 in 6.2 mi East 15.0 mph - N/A   Scattered Clouds
9:00 PM 78.8 °F - 69.8 °F 74% 29.98 in 6.2 mi East 12.7 mph - N/A Rain Light Rain Showers
10:00 PM 80.6 °F 83.9 °F 69.8 °F 70% 29.98 in 6.2 mi East 9.2 mph - N/A   Scattered Clouds
11:00 PM 79 °F - 71 °F 69% 29.98 in 9 mi East 15.0 mph - - Rain Light Rain Showers
11:00 PM 78.8 °F - 69.8 °F 74% 29.98 in 6.2 mi East 15.0 mph - N/A Rain Light Rain Showers